Regional Weather Roundup
Issued by NWS Goodland, KS

Home | Current Version | Previous Version | Text Only | Print | Product List | Glossary On
Versions: 1 2 3 4 5 6 7 8 9 10 11 12 13 14 15 16 17 18 19 20 21 22 23 24 25 26 27 28 29 30 31 32 33 34 35 36 37 38 39 40 41 42 43 44 45 46 47 48 49 50
000
ASUS43 KGLD 280308
RWRGLD

GOODLAND FORECAST AREA HOURLY WEATHER ROUNDUP
NATIONAL WEATHER SERVICE GOODLAND KS
900 PM MDT WED AUG 27 2014

...OFFICIAL OBSERVATIONS...

CITY           SKY/WX    TMP DP  RH WIND       PRES   REMARKS
GOODLAND KS    PTCLDY    67  65  93 SE10      30.02S
HILL CITY KS   TSTM      70  68  93 NE6G18    30.02R
IMPERIAL NEB   CLOUDY    69  65  86 SE15      30.01R
MCCOOK NEB     MOCLDY    68  66  93 E5        30.01R
AKRON CO       CLOUDY    60  58  92 N14       30.08R
BURLINGTON CO  PTCLDY    69  65  86 SE15G21   30.01S
LIMON CO       TSTM      63  59  87 NW15G23   30.13R
$$

...UNOFFICIAL OBSERVATIONS...

CITY           SKY/WX    TMP DP  RH WIND       PRES   REMARKS
COLBY KS       CLEAR     66  66 100 E6        30.02S
GOVE KS          N/A     69  32  25 CALM        N/A
NORTON KS      CLOUDY    68  64  88 E9        29.99
SHARON SPRINGS   N/A     69  66  91 SE12        N/A
WAKEENEY KS      N/A     69  66  90 MISG        N/A
KIT CARSON CO    N/A     71  60  69 MISG        N/A
YUMA CO          N/A     59  59  99 N14         N/A
$$


USA.gov is the U.S. government's official web portal to all federal, state and local government web resources and services.